Location: Civís
(42.4648°N, 1.4232°E)
Time: 13:51:07
(UTC+00:00)

Meteor 2-20 - Pass Details

Date: 22 November 2025
Orbit: 938 x 958 km, 82.5° (Epoch: 10 December)

Event Time Altitude Azimuth Distance (km) Brightness Sun altitude
Rises 06:18:27 0° 1° (N) 3,643 7.3 -6.8°
Reaches altitude 10° 06:21:20 10° 12° (NNE) 2,690 6.7 -6.3°
Maximum altitude 06:26:37 29° 71° (ENE) 1,666 6.4 -5.4°
Drops below altitude 10° 06:31:50 10° 131° (SE) 2,665 8.3 -4.5°
Sets 06:34:40 0° 142° (SE) 3,602 8.7 -4.1°
